sat.trackr.live / text

‹ back to catalog

HYSIS

NORAD 43719 · 2018-096A

PAYLOAD ACTIVE UNKNOWN

§ Identity

Operator
Country
IND
Launch date
2018-11-29
Launch site
SRILR
Launch vehicle
Mass (kg)
RCS (m²)

Purposes: earth_obs

External: N2YO · Heavens-Above · Gunter

§ Orbital elements

Epoch: 2026-05-25T04:53:28.350240Z

Period
97.39 min
Inclination
97.9843°
Eccentricity
0.0001161
Mean motion
14.78637009 rev/d
Perigee alt
632.8 km
Apogee alt
634.4 km
Semi-major
7,011.8 km
B*
1.0436e-4
RAAN
212.1301°
Arg perigee
120.4023°
Mean anomaly
239.7303°
Rev number
40,402

§ Raw data

HYSIS1 43719U 18096A   26145.20380035  .00000713  00000+0  10436-3 0  99942 43719  97.9843 212.1301 0001161 120.4023 239.7303 14.78637009404029

JSON: /api/v1/satellites/43719 · /tle

For live sub-satellite position, see the globe view (requires WebGL).

§ Visibility from observer

Set your observer location to see the next 7 days of passes ≥ 10°. The values pass through the URL so the page stays shareable.

No JS? Fill the form by hand. The geolocation button needs JavaScript.

§ Radio — SatNOGS DB

ModeDescriptionDownlinkUplink
FM Mode S Center 2.245 GHz
FM Mode S STRF 2.263 GHz

2 transmitters · refreshed weekly from db.satnogs.org